Полушкино

Россия / Московская область     55°40′56″N   38°05′41″E
темп.,
°C
ветер,
м/с
пор.,
м/с
влажн.,
%
обл.,
%
осадки,
мм/ч
давл.,
гПа
погр.,
м
13 апреля, вт
вт1300:00+9вюв4139371 0.0 1027353
03:00+8юв31293100 0.0 1027304
06:00+8юв4128988 0.0 1026271
09:00+13ююв4106219 0.0 1026376
12:00+18ююв5844100 0.0 1025769
15:00+20ю593597 0.0 10241867
18:00+18ююв493870 0.0 1023721
21:00+14юв4125446 0.0 1023281
14 апреля, ср
ср1400:00+12ююв415550 0.0 1023395
03:00+10ююв4136313 0.0 1022311
06:00+8юв3107010 0.0 1022214
09:00+13ююв495328 0.0 1021374
12:00+17ююв583886 0.0 1020996
15:00+19ю5728100 0.0 10192080
18:00+18ююв4738100 0.0 10181084
21:00+13юв375410 0.0 1018139
15 апреля, чт
чт1500:00+11юв2562100 0.0 101896
03:00+10ююв2263100 0.0 101831
06:00+9вюв2264100 0.0 101838
09:00+13вюв234963 0.0 1018259
12:00+17юв3440100 0.0 1017731
15:00+18юв333894 0.0 10171227
18:00+17вюв2344100 0.0 1017294
21:00+14всв3859100 0.0 1017211
16 апреля, пт
пт1600:00+12всв31060100 0.0 1018319
03:00+10св41177100 0.0 1018359
06:00+8св51184100 0.0 1019386
09:00+10св5973100 0.0 1020519
12:00+14всв5757100 0.0 1021900
15:00+15св6754100 0.0 10211150
18:00+12св6963100 0.0 1023972
21:00+9св6127393 0.0 1025723
17 апреля, сб
сб1700:00+7св512735 0.0 1026686
03:00+5св5136053 0.0 1027500
06:00+4св513655 0.0 1029467
09:00+7всв610461 0.0 1030968
12:00+10всв69364 0.0 10311486
15:00+11св68335 0.0 10311682
18:00+10всв68311 0.0 10321472
21:00+6всв410415 0.0 1034849